| Date | Time | Temp. (oF) | Dew Point (oF) | Rel. Hum. (%) | Press. (in.) | Wind Dir. | Wind Speed (mph) | Hourly Rainfall (in.) |
|
|---|---|---|---|---|---|---|---|---|---|
| 1 | 04/07 | 00:00 | 46 | 38 | 75 | 30.23 | SE | 3 | 0.00 |
| 2 | 04/06 | 23:00 | 47 | 38 | 73 | 30.24 | ESE | 2 | 0.00 |
| 3 | 04/06 | 22:00 | 47 | 39 | 74 | 30.24 | E | 6 | 0.00 |
| 4 | 04/06 | 21:00 | 47 | 38 | 73 | 30.22 | SE | 4 | 0.00 |
| 5 | 04/06 | 20:00 | 47 | 38 | 72 | 30.20 | SE | 5 | 0.00 |
| 6 | 04/06 | 19:00 | 49 | 39 | 71 | 30.19 | ENE | 6 | 0.00 |
| 7 | 04/06 | 18:00 | 51 | 40 | 68 | 30.20 | ESE | 4 | 0.00 |
| 8 | 04/06 | 17:00 | 51 | 40 | 66 | 30.19 | ESE | 9 | 0.00 |
| 9 | 04/06 | 16:00 | 52 | 40 | 66 | 30.18 | E | 9 | 0.00 |
| 10 | 04/06 | 15:00 | 52 | 41 | 68 | 30.20 | ESE | 12 | 0.00 |
| 11 | 04/06 | 14:00 | 50 | 40 | 71 | 30.20 | ENE | 8 | 0.00 |
| 12 | 04/06 | 13:00 | 49 | 40 | 73 | 30.20 | NE | 10 | 0.00 |
| 13 | 04/06 | 12:00 | 49 | 41 | 76 | 30.20 | E | 8 | 0.00 |
| 14 | 04/06 | 11:00 | 49 | 41 | 76 | 30.18 | SSE | 1 | 0.00 |
| 15 | 04/06 | 10:00 | 49 | 42 | 77 | 30.15 | E | 5 | 0.00 |
| 16 | 04/06 | 09:00 | 47 | 39 | 76 | 30.16 | NE | 5 | 0.00 |
| 17 | 04/06 | 08:00 | 47 | 40 | 78 | 30.16 | ENE | 5 | 0.00 |
| 18 | 04/06 | 07:00 | 47 | 40 | 78 | 30.11 | NNE | 10 | 0.00 |
| 19 | 04/06 | 06:00 | 46 | 38 | 76 | 30.08 | NE | 3 | 0.00 |
| 20 | 04/06 | 05:00 | 45 | 37 | 76 | 30.06 | ESE | 5 | 0.00 |
| 21 | 04/06 | 04:00 | 45 | 37 | 76 | 30.08 | E | 6 | 0.00 |
| 22 | 04/06 | 03:00 | 45 | 37 | 75 | 30.11 | ESE | 4 | 0.00 |
| 23 | 04/06 | 02:00 | 45 | 36 | 72 | 30.13 | NE | 5 | 0.00 |
| 24 | 04/06 | 01:00 | 45 | 36 | 71 | 30.12 | E | 3 | 0.00 |